COSMOS 2251 DEB, 40218

Orbit data source: Space-Track

COSMOS 2251 DEB, 40218 is space debris in LEO originally from a launch on Wed, 16 Jun 1993 UTC launched from the Plesetsk Missile And Space Complex (PKMTR). The debris from Iridium 33, an American commercial communications satellite, has been tracked extensively since its accidental collision with the defunct Russian satellite Cosmos 2251 in 2009. This event, occurring at high speed in low Earth orbit (LEO), generated thousands of pieces of space debris, significantly increasing the risk of further collisions. The Iridium 33 debris cloud has impacted space traffic management and orbital debris mitigation strategies, making it a subject of ongoing study in space situational awareness.

Loading next visibility...
Identifier
40218, 1993-036BUX
Orbit
LEO
Country
Flag of CISCIS
Related business
Manufacturer
Unknown
Mission
Spacecraft
Bus & Motor
Unknown
Mass
Unknown
Launch date (UTC)
1993-06-16 (33 years ago)
Launch vehicle
Unknown
Launch site
Plesetsk Missile And Space Complex (PKMTR)
Object type
Payload
Rocket body
Debris
Shape & HBR
Unknown shape, 0.1 m
Radar Cross Section
Small (<0.1 m²)

Expand to show TLE details & history
Last TLE update: 16 hours ago

TLE from 16 hours ago
0 COSMOS 2251 DEB
1 40218U 93036BUX 26123.88840525  .00000848  00000-0  26646-3 0  9997
2 40218  74.0316 345.3329 0015909  39.4668 320.7643 14.41948977609102
Epoch: 2026-05-03T21:19Z
TLE epoch observation values (Epoch: 2026-05-03T21:19:18.213Z)
Latitude
-0.00007°
Longitude
163.7215°
Altitude
745.904 km
Speed
7.487 km/s
True Right ascension
23h 01m 19s
True Declination
0° 00' 00"
Sunlit
Object was in daylight at epoch
Visualization orbit readout
Latitude
Unknown
Longitude
Unknown
Altitude
Unknown
Speed
Unknown
Apparent Right ascension
Unknown
Apparent Declination
Unknown
Sunlit
N/A
Visualization observer readout
Local Sidereal Time
20:50:20
Azimuth
Unknown
Elevation
Unknown
Doppler factor
Unknown
Orbital elements
Apogee altitude
761.024 km
Perigee altitude
738.344 km
Semi-major axis
7,127.821 km
Eccentricity
0.00159
Inclination
74.0316°
RAAN
345.3329°
Arg. of periapsis
39.4668°
True anomaly
320.64881°
Mean anomaly
320.7643°
Eccentric anomaly
320.70657°
Mean motion
3.60668 °/min
Orbital period
99.81 mins
BSTAR
0.00026646
Loading maneuver chart data...
Computing Atmospheric mass density...

Documentation

Showing up to 5 results
|